[[{"header":{"parameterUnit":"m.s-1","parameterCategory":1,"la1":30.2992,"la2":30.254,"lo1":-89.0895,"lo2":-89.0443,"dy":0.0025,"dx":0.0025,"nx":19,"ny":19,"refTime":"2026-04-05T09:00:00:Z","depth":0,"parameterNumber":2,"parameterNumberName":"U-component_of_WINDS"},"data":[0,0,0,-3.5252,-3.5256,-3.5432,-3.5433,-3.5685,-3.5688,0,0,0,0,0,0,0,0,0,0,0,-3.5217,-3.5219,-3.5252,-3.5257,-3.5432,-3.5433,-3.5685,-3.5688,0,0,0,0,0,0,0,0,0,0,0,-3.5216,-3.5219,-3.5222,-3.5257,-3.5432,-3.5433,-3.5684,-3.5542,0,0,0,0,0,0,0,0,0,0,-3.5366,-3.5351,-3.5218,-3.5222,-3.5259,-3.5432,-3.5433,-3.5535,-3.5551,-3.5618,0,-3.5682,0,-3.5689,-3.5707,-3.5708,0,0,0,-3.5244,-3.5337,-3.5369,-3.5222,-3.526,-3.5432,-3.5349,-3.5543,-3.5562,-3.5639,-3.5685,-3.5694,-3.5693,-3.5708,-3.571,-3.6138,-3.6141,0,0,-3.5235,-3.5258,-3.5357,-3.5382,-3.5357,-3.5344,-3.5355,-3.5554,-3.5605,-3.5686,-3.5699,-3.5697,-3.571,-3.5712,-3.6136,-3.6139,0,0,0,-3.5215,-3.5252,-3.5278,-3.5372,-3.5402,-3.5349,-3.5362,-3.5597,-3.5603,-3.5702,-3.57,-3.5712,-3.5715,-3.6133,-3.6137,-3.6291,0,0,0,-3.5209,-3.524,-3.5275,-3.5291,-3.5399,-3.5502,-3.5401,-3.5589,-3.5611,-3.5699,-3.5712,-3.5718,-3.613,-3.6135,-3.628,-3.636,0,0,0,-3.52,-3.5239,-3.527,-3.5292,-3.5368,-3.5498,-3.5515,-3.5593,-3.5611,-3.5708,-3.5719,-3.6128,-3.6134,-3.6271,-3.6345,-3.6483,0,0,0,-3.5197,-3.5403,-3.5273,-3.5502,-3.5367,-3.559,-3.5514,-3.5679,-3.578,-3.5713,-3.6131,-3.6137,-3.6268,-3.6335,-3.6473,-3.6605,-3.6662,0,0,-3.547,-3.5437,-3.5569,-3.5458,-3.5711,-3.5561,-3.5837,-3.5906,-3.5893,-3.6057,-3.6068,-3.6284,-3.6344,-3.648,-3.6962,-3.7008,0,0,0,-3.5664,-3.576,-3.5822,-3.5919,-3.5977,-3.6034,-3.6059,-3.6085,-3.6223,-3.5982,-3.6367,-3.6403,-3.6482,-3.6544,-3.6583,-3.665,-3.6165,-3.6165,-3.6164,-3.6087,-3.6059,-3.6277,-3.6271,-3.6366,-3.6389,-3.6464,-3.6503,-3.6446,-3.6538,-3.6588,-3.6884,-3.6958,-3.6987,-3.7058,-3.6652,-3.6653,-3.6653,-3.6654,-3.6487,-3.662,-3.6539,-3.6723,-3.6693,-3.6846,-3.6876,-3.6831,-3.697,-3.6844,-3.6912,-3.6781,-3.7037,-3.7098,-3.6665,-3.6663,-3.6662,-3.666,-3.666,-3.6765,-3.6824,-3.6851,-3.6989,-3.7098,-3.7082,-3.7221,-3.7186,-3.7155,-3.7222,-3.7273,-3.727,-3.7267,-3.7248,-3.7249,-3.725,-3.7251,-3.7251,-3.7252,-3.7044,-3.7069,-3.719,-3.7268,-3.7326,-3.7398,-3.7422,-3.7478,-3.7532,-3.7496,-3.7497,-3.7434,-3.7065,-3.6976,-3.7268,-3.7265,-3.7263,-3.7262,-3.7261,-3.7468,-3.7366,-3.7553,-3.7611,-3.77,-3.7812,-3.7765,-3.7883,-3.7923,-3.7993,-3.7913,-3.7646,-3.761,-3.7579,-3.7505,-3.7917,-3.7917,-3.7917,-3.7917,-3.7706,-3.7682,-3.7866,-3.7962,-3.8051,-3.8027,-3.824,-3.826,-3.8265,-3.8289,-3.8223,-3.812,-3.809,-3.8072,-3.8031,-3.7962,-3.848,-3.8481,-3.8481,-3.7967,-3.795,-3.8139,-3.8142,-3.8208,-3.8266,-3.8466,-3.858,-3.8563,-3.8504,-3.8308,-3.8284,-3.8118,-3.8064,-3.8006,-3.7942,-3.7815,0,0]},{"header":{"parameterUnit":"m.s-1","parameterCategory":1,"la1":30.2992,"la2":30.254,"lo1":-89.0895,"lo2":-89.0443,"dy":0.0025,"dx":0.0025,"nx":19,"ny":19,"refTime":"2026-04-05T09:00:00:Z","depth":0,"parameterNumber":3,"parameterNumberName":"V-component_of_WINDS"},"data":[0,0,0,-6.478,-6.4784,-6.4946,-6.4946,-6.5168,-6.517,0,0,0,0,0,0,0,0,0,0,0,-6.4744,-6.4746,-6.4779,-6.4784,-6.4946,-6.4946,-6.5167,-6.517,0,0,0,0,0,0,0,0,0,0,0,-6.4743,-6.4746,-6.4748,-6.4785,-6.4946,-6.4946,-6.5167,-6.5039,0,0,0,0,0,0,0,0,0,0,-6.4879,-6.4859,-6.4745,-6.4748,-6.4786,-6.4945,-6.4946,-6.5032,-6.5047,-6.5102,0,-6.5157,0,-6.5168,-6.5186,-6.5187,0,0,0,-6.4774,-6.4847,-6.488,-6.4749,-6.4787,-6.4945,-6.487,-6.504,-6.5056,-6.5121,-6.516,-6.5168,-6.5171,-6.5188,-6.5189,-6.5548,-6.555,0,0,-6.4765,-6.478,-6.4869,-6.4891,-6.4871,-6.4865,-6.4875,-6.505,-6.5092,-6.5161,-6.5173,-6.5175,-6.5189,-6.5191,-6.5546,-6.5548,0,0,0,-6.4746,-6.4774,-6.4802,-6.4883,-6.4911,-6.487,-6.4881,-6.5084,-6.5092,-6.5175,-6.5177,-6.5191,-6.5193,-6.5543,-6.5547,-6.5669,0,0,0,-6.474,-6.4763,-6.4798,-6.4809,-6.4908,-6.5,-6.4913,-6.508,-6.51,-6.5176,-6.5191,-6.5196,-6.5541,-6.5545,-6.566,-6.5724,0,0,0,-6.4729,-6.4761,-6.4789,-6.4809,-6.488,-6.4997,-6.5015,-6.5084,-6.5102,-6.5187,-6.5196,-6.5539,-6.5544,-6.5653,-6.5711,-6.5823,0,0,0,-6.4721,-6.4895,-6.4792,-6.4985,-6.4879,-6.5073,-6.5014,-6.5157,-6.5244,-6.5192,-6.5541,-6.5546,-6.565,-6.5704,-6.5815,-6.592,-6.5965,0,0,-6.4948,-6.4923,-6.5035,-6.4948,-6.5164,-6.5047,-6.5279,-6.5345,-6.5337,-6.5477,-6.5486,-6.5663,-6.5711,-6.5821,-6.6212,-6.6248,0,0,0,-6.5112,-6.5193,-6.5247,-6.5333,-6.5388,-6.544,-6.5468,-6.5491,-6.561,-6.5414,-6.5733,-6.576,-6.5825,-6.5874,-6.5905,-6.5958,-6.557,-6.5569,-6.5569,-6.5454,-6.5437,-6.5622,-6.5625,-6.5708,-6.5735,-6.58,-6.5836,-6.5793,-6.5869,-6.5911,-6.615,-6.6209,-6.6231,-6.6288,-6.5964,-6.5964,-6.5965,-6.5965,-6.5784,-6.5896,-6.5836,-6.5994,-6.5974,-6.6105,-6.6136,-6.6102,-6.6219,-6.6118,-6.6173,-6.6065,-6.6272,-6.632,-6.5974,-6.5973,-6.5972,-6.5971,-6.597,-6.6007,-6.6057,-6.6085,-6.6206,-6.63,-6.6295,-6.6411,-6.6387,-6.6366,-6.6421,-6.6461,-6.6459,-6.6454,-6.6442,-6.6443,-6.6443,-6.6444,-6.6445,-6.6445,-6.6227,-6.6254,-6.6356,-6.6428,-6.6479,-6.6543,-6.6571,-6.6619,-6.6666,-6.664,-6.664,-6.6589,-6.6296,-6.6222,-6.6458,-6.6456,-6.6454,-6.6453,-6.6452,-6.6569,-6.6488,-6.6646,-6.6698,-6.6779,-6.6874,-6.6842,-6.6942,-6.6979,-6.7036,-6.6973,-6.676,-6.6731,-6.6706,-6.6645,-6.6977,-6.6977,-6.6977,-6.6977,-6.6757,-6.674,-6.6896,-6.698,-6.7058,-6.7045,-6.7221,-6.7242,-6.7251,-6.7272,-6.722,-6.7137,-6.7113,-6.7099,-6.7065,-6.7008,-6.7424,-6.7425,-6.7425,-6.6966,-6.6956,-6.7112,-6.7122,-6.7184,-6.7236,-6.74,-6.7495,-6.7488,-6.7443,-6.7287,-6.7268,-6.7134,-6.7091,-6.7044,-6.6994,-6.6888,0,0]}]]